| time (UTC) | temp F | wind direction | speed knots | gust knots | rain 1hr in | rain 24hr in | rain mn in | humidity % | barometer mb |
| 20260902161004 | 71 | 317 | 1.7 | 4.3 | 0.00 | 0.15 | 0.15 | 88 | 1014.1 |
| 20260902160005 | 70 | 302 | 1.7 | 5.2 | 0.00 | 0.15 | 0.15 | 88 | 1014.1 |
| 20260902155004 | 70 | 335 | 0.9 | 5.2 | 0.00 | 0.15 | 0.15 | 88 | 1014.0 |
| 20260902154004 | 71 | 285 | 1.7 | 5.2 | 0.00 | 0.15 | 0.15 | 88 | 1014.1 |
| 20260902153003 | 70 | 256 | 2.6 | 5.2 | 0.00 | 0.15 | 0.15 | 91 | 1014.1 |
| 20260902152004 | 70 | 284 | 1.7 | 4.3 | 0.00 | 0.15 | 0.15 | 89 | 1013.8 |
| 20260902151004 | 69 | 288 | 1.7 | 2.6 | 0.00 | 0.15 | 0.15 | 92 | 1013.6 |
| 20260902150004 | 67 | 337 | 0.9 | 1.7 | 0.00 | 0.15 | 0.15 | 97 | 1013.6 |
| 20260902145004 | 67 | 0 | 0.0 | 2.6 | 0.00 | 0.15 | 0.15 | 99 | 1013.9 |
| 20260902144004 | 65 | 4 | 1.7 | 2.6 | 0.00 | 0.15 | 0.15 | 99 | 1014.2 |
| 20260902143004 | 64 | 304 | 1.7 | 2.6 | 0.00 | 0.15 | 0.15 | 99 | 1014.5 |
| 20260902142004 | 63 | 325 | 1.7 | 4.3 | 0.00 | 0.15 | 0.15 | 99 | 1014.7 |
| 20260902140004 | 63 | 303 | 0.9 | 4.3 | 0.00 | 0.15 | 0.15 | 99 | 1014.9 |
| 20260902135004 | 63 | 288 | 1.7 | 4.3 | 0.00 | 0.15 | 0.15 | 99 | 1015.1 |
| 20260902134004 | 62 | 314 | 0.9 | 1.7 | 0.01 | 0.15 | 0.15 | 99 | 1014.9 |
| 20260902133003 | 62 | 302 | 0.0 | 2.6 | 0.00 | 0.15 | 0.15 | 99 | 1014.6 |
| 20260902132004 | 62 | 307 | 0.9 | 2.6 | 0.00 | 0.15 | 0.15 | 99 | 1014.9 |
| 20260902130004 | 62 | 331 | 0.0 | 2.6 | 0.00 | 0.15 | 0.15 | 99 | 1014.7 |
| 20260902125003 | 62 | 101 | 0.0 | 2.6 | 0.01 | 0.15 | 0.15 | 99 | 1014.8 |
| 20260902124004 | 61 | 317 | 0.9 | 2.6 | 0.01 | 0.15 | 0.15 | 99 | 1014.6 |
| 20260902123004 | 61 | 322 | 0.9 | 4.3 | 0.01 | 0.15 | 0.15 | 99 | 1014.5 |
| 20260902122004 | 61 | 340 | 1.7 | 4.3 | 0.01 | 0.15 | 0.15 | 99 | 1014.0 |
| 20260902121004 | 61 | 37 | 0.0 | 4.3 | 0.02 | 0.15 | 0.15 | 99 | 1013.9 |
| 20260902120004 | 61 | 81 | 0.9 | 2.6 | 0.05 | 0.15 | 0.15 | 99 | 1013.5 |
| 20260902115004 | 61 | 343 | 1.7 | 2.6 | 0.06 | 0.14 | 0.14 | 99 | 1013.3 |
| 20260902114004 | 61 | 250 | 0.0 | 1.7 | 0.08 | 0.14 | 0.14 | 99 | 1012.6 |
| 20260902113003 | 61 | 25 | 0.9 | 1.7 | 0.09 | 0.14 | 0.14 | 99 | 1012.7 |
| 20260902112004 | 62 | 342 | 0.9 | 2.6 | 0.11 | 0.14 | 0.14 | 99 | 1012.9 |
| 20260902111003 | 62 | 19 | 1.7 | 2.6 | 0.12 | 0.13 | 0.13 | 99 | 1013.1 |
| 20260902110005 | 62 | 29 | 1.7 | 4.3 | 0.10 | 0.10 | 0.10 | 99 | 1015.5 |
| 20260902105004 | 62 | 293 | 0.9 | 5.2 | 0.07 | 0.07 | 0.07 | 99 | 1016.8 |
| 20260902103004 | 62 | 277 | 1.7 | 4.3 | 0.05 | 0.05 | 0.05 | 99 | 1016.6 |
| 20260902102004 | 62 | 265 | 0.9 | 4.3 | 0.03 | 0.03 | 0.03 | 97 | 1016.7 |
| 20260902100003 | 64 | 297 | 1.7 | 4.3 | 0.00 | 0.00 | 0.00 | 91 | 1015.8 |
| 20260902095004 | 64 | 285 | 1.7 | 2.6 | 0.00 | 0.00 | 0.00 | 90 | 1015.3 |
| 20260902094004 | 63 | 302 | 1.7 | 2.6 | 0.00 | 0.00 | 0.00 | 92 | 1014.8 |
| 20260902093004 | 62 | 320 | 1.7 | 2.6 | 0.00 | 0.00 | 0.00 | 95 | 1014.2 |
| 20260902092004 | 62 | 323 | 0.0 | 1.7 | 0.00 | 0.00 | 0.00 | 96 | 1014.2 |
| 20260902091004 | 62 | 8 | 0.0 | 0.9 | 0.00 | 0.00 | 0.00 | 96 | 1014.0 |
| 20260902090005 | 63 | 1 | 0.9 | 0.9 | 0.00 | 0.00 | 0.00 | 96 | 1013.7 |
| 20260902085004 | 63 | 341 | 0.9 | 0.9 | 0.00 | 0.00 | 0.00 | 95 | 1013.8 |
| 20260902084004 | 63 | 33 | 0.0 | 0.9 | 0.00 | 0.00 | 0.00 | 96 | 1013.6 |
| 20260902083004 | 62 | 55 | 0.0 | 1.7 | 0.00 | 0.00 | 0.00 | 94 | 1013.8 |
| 20260902082004 | 62 | 304 | 0.9 | 1.7 | 0.00 | 0.00 | 0.00 | 96 | 1013.9 |
| 20260902081004 | 62 | 337 | 0.9 | 0.9 | 0.00 | 0.00 | 0.00 | 95 | 1013.6 |
| 20260902080004 | 63 | 323 | 0.9 | 0.9 | 0.00 | 0.00 | 0.00 | 95 | 1013.3 |
| 20260902075003 | 63 | 348 | 0.9 | 0.9 | 0.00 | 0.00 | 0.00 | 94 | 1013.5 |
| 20260902074003 | 64 | 336 | 0.9 | 1.7 | 0.00 | 0.00 | 0.00 | 93 | 1013.3 |
| 20260902073003 | 65 | 321 | 0.9 | 2.6 | 0.00 | 0.00 | 0.00 | 91 | 1013.4 |
| 20260902072004 | 64 | 331 | 0.9 | 1.7 | 0.00 | 0.00 | 0.00 | 93 | 1013.4 |
| 20260902070005 | 64 | 343 | 0.9 | 1.7 | 0.00 | 0.00 | 0.00 | 95 | 1013.6 |
| 20260902065004 | 64 | 348 | 0.9 | 1.7 | 0.00 | 0.00 | 0.00 | 96 | 1013.8 |
| 20260902064004 | 64 | 334 | 0.9 | 1.7 | 0.00 | 0.00 | 0.00 | 95 | 1013.9 |
| 20260902063004 | 64 | 325 | 0.9 | 1.7 | 0.00 | 0.00 | 0.00 | 94 | 1013.8 |
| 20260902061004 | 64 | 324 | 0.9 | 1.7 | 0.00 | 0.00 | 0.00 | 94 | 1013.8 |
| 20260902055004 | 64 | 317 | 0.9 | 1.7 | 0.00 | 0.00 | 0.00 | 95 | 1013.8 |
| 20260902054004 | 64 | 308 | 0.9 | 1.7 | 0.00 | 0.00 | 0.00 | 94 | 1013.7 |
| 20260902052003 | 65 | 309 | 0.0 | 0.9 | 0.00 | 0.00 | 0.00 | 93 | 1013.5 |
| 20260902050007 | 66 | 346 | 0.0 | 0.9 | 0.00 | 0.00 | 0.00 | 91 | 1013.6 |
| 20260902044004 | 67 | 26 | 0.0 | 0.9 | 0.00 | 0.00 | 0.00 | 89 | 1013.4 |
| 20260902043003 | 68 | 7 | 0.0 | 0.9 | 0.00 | 0.00 | 0.00 | 90 | 1013.5 |
| 20260902042003 | 68 | 22 | 0.0 | 0.9 | 0.00 | 0.00 | 0.00 | 89 | 1013.5 |
| 20260902041003 | 68 | 11 | 0.0 | 0.9 | 0.00 | 0.00 | 0.00 | 90 | 1013.5 |
| 20260902040004 | 69 | 18 | 0.0 | 0.9 | 0.00 | 0.00 | 0.00 | 89 | 1013.3 |
| 20260902034003 | 69 | 5 | 0.0 | 0.9 | 0.00 | 0.00 | 0.00 | 89 | 1013.2 |
| 20260902033004 | 69 | 325 | 0.0 | 0.9 | 0.00 | 0.00 | 0.00 | 88 | 1013.2 |
| 20260902032004 | 68 | 326 | 0.0 | 0.9 | 0.00 | 0.00 | 0.00 | 90 | 1013.0 |
| 20260902030004 | 69 | 9 | 0.0 | 0.9 | 0.00 | 0.00 | 0.00 | 91 | 1012.9 |
| 20260902025004 | 69 | 0 | 0.0 | 0.9 | 0.00 | 0.00 | 0.00 | 90 | 1012.9 |
| 20260902024004 | 70 | 355 | 0.0 | 0.9 | 0.00 | 0.00 | 0.00 | 88 | 1012.9 |
| 20260902021004 | 72 | 316 | 0.0 | 1.7 | 0.00 | 0.00 | 0.00 | 82 | 1012.8 |
| 20260902015004 | 73 | 309 | 0.0 | 0.9 | 0.00 | 0.00 | 0.00 | 81 | 1012.8 |
| 20260902014004 | 74 | 316 | 0.0 | 0.9 | 0.00 | 0.00 | 0.00 | 81 | 1012.6 |
| 20260902013004 | 74 | 317 | 0.0 | 2.6 | 0.00 | 0.00 | 0.00 | 79 | 1012.5 |
| 20260902012004 | 74 | 51 | 0.0 | 0.9 | 0.00 | 0.00 | 0.00 | 79 | 1012.3 |
| 20260902005003 | 75 | 33 | 0.0 | 0.9 | 0.00 | 0.00 | 0.00 | 77 | 1012.0 |
| 20260902003004 | 78 | 342 | 0.0 | 0.0 | 0.00 | 0.00 | 0.00 | 72 | 1012.0 |
| 20260902002004 | 79 | 7 | 0.0 | 1.7 | 0.00 | 0.00 | 0.00 | 69 | 1012.1 |
| 20260902001003 | 80 | 333 | 0.0 | 0.9 | 0.00 | 0.00 | 0.00 | 67 | 1012.0 |
| 20260902000004 | 81 | 308 | 0.0 | 0.9 | 0.00 | 0.00 | 0.00 | 64 | 1012.0 |
| 20260901235004 | 83 | 316 | 0.9 | 2.6 | 0.00 | 0.00 | 0.00 | 61 | 1011.8 |
| 20260901233003 | 84 | 325 | 0.9 | 4.3 | 0.00 | 0.00 | 0.00 | 59 | 1012.0 |
| 20260901232004 | 85 | 300 | 1.7 | 4.3 | 0.00 | 0.00 | 0.00 | 57 | 1011.9 |
| 20260901231004 | 85 | 305 | 0.9 | 5.2 | 0.00 | 0.00 | 0.00 | 58 | 1012.0 |
| 20260901230004 | 85 | 341 | 0.9 | 4.3 | 0.00 | 0.00 | 0.00 | 60 | 1012.0 |
| 20260901225004 | 86 | 283 | 0.9 | 4.3 | 0.00 | 0.00 | 0.00 | 59 | 1012.0 |
| 20260901224004 | 85 | 294 | 0.9 | 2.6 | 0.00 | 0.00 | 0.00 | 60 | 1012.1 |
| 20260901223004 | 86 | 281 | 0.9 | 1.7 | 0.00 | 0.00 | 0.00 | 59 | 1012.0 |
| 20260901222004 | 88 | 287 | 0.9 | 5.2 | 0.00 | 0.00 | 0.00 | 54 | 1011.9 |
| 20260901221004 | 89 | 272 | 1.7 | 7.0 | 0.00 | 0.00 | 0.00 | 53 | 1011.9 |
| 20260901220004 | 89 | 289 | 1.7 | 5.2 | 0.00 | 0.00 | 0.00 | 52 | 1011.9 |
| 20260901215004 | 89 | 296 | 1.7 | 5.2 | 0.00 | 0.00 | 0.00 | 52 | 1012.0 |
| 20260901214004 | 87 | 276 | 1.7 | 5.2 | 0.00 | 0.00 | 0.00 | 54 | 1012.1 |
| 20260901213003 | 88 | 278 | 2.6 | 6.1 | 0.00 | 0.00 | 0.00 | 50 | 1011.8 |
| 20260901212004 | 90 | 314 | 3.5 | 7.0 | 0.00 | 0.00 | 0.00 | 48 | 1012.0 |
| 20260901210003 | 90 | 281 | 3.5 | 8.7 | 0.00 | 0.00 | 0.00 | 45 | 1012.2 |
| 20260901205004 | 90 | 297 | 1.7 | 7.8 | 0.00 | 0.00 | 0.00 | 47 | 1012.1 |
| 20260901202004 | 91 | 257 | 3.5 | 7.0 | 0.00 | 0.00 | 0.00 | 47 | 1012.3 |
| 20260901201004 | 91 | 266 | 2.6 | 7.0 | 0.00 | 0.00 | 0.00 | 44 | 1012.4 |
| 20260901200003 | 91 | 342 | 1.7 | 5.2 | 0.00 | 0.00 | 0.00 | 48 | 1012.4 |
| 20260901195004 | 92 | 262 | 0.9 | 5.2 | 0.00 | 0.00 | 0.00 | 48 | 1012.5 |
| 20260901194004 | 90 | 287 | 1.7 | 6.1 | 0.00 | 0.00 | 0.00 | 51 | 1012.5 |
| 20260901192004 | 89 | 228 | 2.6 | 7.0 | 0.00 | 0.00 | 0.00 | 49 | 1012.7 |
| 20260901191004 | 89 | 270 | 2.6 | 6.1 | 0.00 | 0.00 | 0.00 | 49 | 1013.0 |
| 20260901190003 | 89 | 270 | 2.6 | 7.8 | 0.00 | 0.00 | 0.00 | 47 | 1012.9 |
| 20260901185004 | 89 | 293 | 2.6 | 5.2 | 0.00 | 0.00 | 0.00 | 47 | 1012.9 |
| 20260901184004 | 89 | 268 | 1.7 | 6.1 | 0.00 | 0.00 | 0.00 | 48 | 1013.1 |
| 20260901183004 | 88 | 270 | 3.5 | 7.0 | 0.00 | 0.00 | 0.00 | 50 | 1013.2 |
| 20260901182004 | 89 | 288 | 2.6 | 4.3 | 0.00 | 0.00 | 0.00 | 51 | 1013.2 |
| 20260901181003 | 87 | 273 | 2.6 | 6.1 | 0.00 | 0.00 | 0.00 | 53 | 1013.4 |
| 20260901180004 | 87 | 297 | 1.7 | 11.3 | 0.00 | 0.00 | 0.00 | 51 | 1013.4 |
| 20260901175004 | 87 | 297 | 1.7 | 6.1 | 0.00 | 0.00 | 0.00 | 54 | 1013.6 |
| 20260901174004 | 87 | 282 | 1.7 | 7.0 | 0.00 | 0.00 | 0.00 | 55 | 1013.8 |
| 20260901173004 | 86 | 283 | 1.7 | 5.2 | 0.00 | 0.00 | 0.00 | 59 | 1013.9 |
| 20260901172004 | 86 | 301 | 0.9 | 4.3 | 0.00 | 0.00 | 0.00 | 59 | 1014.0 |
| 20260901171004 | 86 | 75 | 0.9 | 5.2 | 0.00 | 0.00 | 0.00 | 61 | 1014.3 |
| 20260901170004 | 85 | 271 | 2.6 | 5.2 | 0.00 | 0.00 | 0.00 | 60 | 1014.1 |
| 20260901165004 | 85 | 282 | 1.7 | 4.3 | 0.00 | 0.00 | 0.00 | 63 | 1014.2 |
| 20260901164004 | 85 | 128 | 1.7 | 4.3 | 0.00 | 0.00 | 0.00 | 64 | 1014.2 |